TimeCST,TemperatureF,Dew PointF,Humidity,Sea Level PressureIn,VisibilityMPH,Wind Direction,Wind SpeedMPH,Gust SpeedMPH,PrecipitationIn,Events,Conditions,WindDirDegrees,DateUTC
12:53 AM,24.1,18.0,77,30.05,10.0,NNW,4.6,-,N/A,,Clear,340,2012-12-07 06:53:00
1:53 AM,24.1,19.0,81,30.06,10.0,NNW,4.6,-,N/A,,Clear,330,2012-12-07 07:53:00
2:53 AM,23.0,19.0,85,30.07,10.0,Calm,Calm,-,N/A,,Clear,0,2012-12-07 08:53:00
3:53 AM,21.0,18.0,88,30.06,10.0,SSE,3.5,-,N/A,,Clear,150,2012-12-07 09:53:00
4:53 AM,23.0,19.0,85,30.07,10.0,Calm,Calm,-,N/A,,Clear,0,2012-12-07 10:53:00
5:53 AM,21.9,18.0,85,30.07,10.0,Calm,Calm,-,N/A,,Clear,0,2012-12-07 11:53:00
6:53 AM,19.9,16.0,85,30.08,7.0,Calm,Calm,-,N/A,,Clear,0,2012-12-07 12:53:00
7:53 AM,18.0,15.1,88,30.09,4.0,Calm,Calm,-,N/A,,Scattered Clouds,0,2012-12-07 13:53:00
8:53 AM,21.9,19.0,89,30.11,6.0,Calm,Calm,-,N/A,,Overcast,0,2012-12-07 14:53:00
9:53 AM,26.1,21.9,84,30.12,7.0,NW,4.6,-,N/A,,Overcast,310,2012-12-07 15:53:00
10:53 AM,28.0,21.9,78,30.12,8.0,WNW,5.8,-,N/A,,Overcast,300,2012-12-07 16:53:00
11:53 AM,28.0,21.9,78,30.11,9.0,NNW,6.9,-,N/A,,Overcast,330,2012-12-07 17:53:00
12:53 PM,28.9,21.0,72,30.11,10.0,NW,6.9,-,N/A,,Overcast,310,2012-12-07 18:53:00
1:53 PM,28.9,21.0,72,30.10,10.0,NW,6.9,-,N/A,,Overcast,310,2012-12-07 19:53:00
2:53 PM,28.9,21.0,72,30.10,10.0,NW,4.6,-,N/A,,Overcast,320,2012-12-07 20:53:00
3:37 PM,28.4,21.2,74,30.03,2.5,North,3.5,-,0.00,Snow,Light Snow,10,2012-12-07 21:37:00
3:44 PM,28.4,21.2,74,30.03,1.2,North,4.6,-,0.00,Snow,Light Snow,10,2012-12-07 21:44:00
3:53 PM,27.0,21.9,81,30.10,1.2,North,4.6,-,0.00,Snow,Light Snow,10,2012-12-07 21:53:00
4:34 PM,26.6,23.0,86,30.03,1.8,NNE,4.6,-,0.00,Snow,Light Snow,30,2012-12-07 22:34:00
4:41 PM,26.6,21.2,80,30.02,2.5,NNE,5.8,-,0.00,Snow,Light Snow,30,2012-12-07 22:41:00
4:53 PM,26.1,21.9,84,30.10,3.0,NNE,3.5,-,0.00,Snow,Light Snow,30,2012-12-07 22:53:00
5:51 PM,26.6,21.2,80,30.03,2.5,Calm,Calm,-,0.00,Snow,Light Snow,0,2012-12-07 23:51:00
5:53 PM,26.1,21.9,84,30.10,2.5,Calm,Calm,-,0.00,Snow,Light Snow,0,2012-12-07 23:53:00
6:20 PM,26.6,21.2,80,30.03,2.0,Calm,Calm,-,0.01,Snow,Light Snow,0,2012-12-08 00:20:00
6:31 PM,26.6,21.2,80,30.03,2.0,Calm,Calm,-,0.01,Snow,Light Snow,0,2012-12-08 00:31:00
6:53 PM,24.8,21.2,86,30.03,2.5,Calm,Calm,-,N/A,Snow,Light Snow,0,2012-12-08 00:53:00
7:23 PM,24.8,21.2,86,30.04,1.8,Calm,Calm,-,0.00,Snow,Light Snow,0,2012-12-08 01:23:00
7:53 PM,25.0,21.9,88,30.12,1.8,Calm,Calm,-,0.01,Snow,Light Snow,0,2012-12-08 01:53:00
8:46 PM,24.8,21.2,86,30.04,2.0,Calm,Calm,-,0.01,Snow,Light Snow,0,2012-12-08 02:46:00
8:53 PM,25.0,21.9,88,30.11,2.0,Calm,Calm,-,0.01,Snow,Light Snow,0,2012-12-08 02:53:00
9:17 PM,24.8,21.2,86,30.04,1.8,Calm,Calm,-,0.00,Snow,Light Snow,0,2012-12-08 03:17:00
9:40 PM,24.8,21.2,86,30.03,2.0,North,3.5,-,N/A,Snow,Light Snow,10,2012-12-08 03:40:00
9:53 PM,25.0,21.0,85,30.11,2.5,NNE,3.5,-,0.00,Snow,Light Snow,30,2012-12-08 03:53:00
10:46 PM,24.8,21.2,86,30.03,1.8,Calm,Calm,-,0.01,Snow,Light Snow,0,2012-12-08 04:46:00
10:53 PM,24.1,21.0,88,30.11,2.0,Calm,Calm,-,0.01,Snow,Light Snow,0,2012-12-08 04:53:00
11:19 PM,23.0,21.2,93,30.04,4.0,Calm,Calm,-,0.00,Snow,Light Snow,0,2012-12-08 05:19:00
11:35 PM,21.2,19.4,93,30.04,6.0,Calm,Calm,-,0.00,,Mostly Cloudy,0,2012-12-08 05:35:00
11:53 PM,21.0,19.0,92,30.11,7.0,North,3.5,-,0.00,,Overcast,350,2012-12-08 05:53:00